ARABSAT-6A

Last updated on Tue Oct 21 2025 00:02:54 GMT+0000 (Coordinated Universal Time)

1 44186U 19021A 25293.62910896 .00000157 00000+0 00000+0 0 9999 2 44186 0.0539 313.2455 0006776 295.9927 37.1013 1.00271114 23753
UTC large
Height (km)
Speed (km/s)
/
Latitude / Longitude
Inclination (degrees)
Orbital Period (minutes)
Azimuth
Elevation
Range (km)
Doppler Factor

Next 0 passes for location: London (51.5072 / 0.1276)

Sorry there are no passes over London.